Location: Newark
(56.0692°N, 115.8617°E)
Time: 04:47:02
(UTC+00:00)

Transit 4A - All Passes

Search period start: 06 June 2020 00:00
Search period end: 16 June 2020 00:00
Orbit: 868 x 976 km, 66.8° (Epoch: 05 June)

Date Brightness Start Highest point End Pass type
(mag) Time Alt. Az. Time Alt. Az. Time Alt. Az.
06 Jun - 01:37:05 10° NW 01:42:39 37° WSW 01:48:20 10° S daylight
06 Jun - 15:08:01 10° SE 15:11:22 16° ESE 15:14:47 10° ENE visible
06 Jun - 16:50:50 10° SSW 16:56:37 64° SE 17:02:33 10° NE visible
06 Jun - 18:37:35 10° WSW 18:43:16 47° NNW 18:49:07 10° NE daylight
06 Jun - 20:25:44 10° WNW 20:30:58 30° N 20:36:19 10° ENE daylight
06 Jun - 22:13:14 10° NW 22:18:51 38° NNE 22:24:35 10° E daylight
06 Jun - 23:59:48 10° NW 00:05:56 86° NE 00:12:13 10° SE daylight
07 Jun - 01:46:39 10° NW 01:51:46 28° WSW 01:56:58 10° S daylight
07 Jun - 15:16:00 10° SSE 15:20:21 22° ESE 15:24:46 10° ENE visible
07 Jun - 17:00:02 10° SW 17:05:54 82° SE 17:11:56 10° NE visible
07 Jun - 18:47:16 10° W 18:52:49 40° NNW 18:58:32 10° NE daylight
07 Jun - 20:35:25 10° WNW 20:40:39 30° N 20:46:00 10° ENE daylight
07 Jun - 22:22:39 10° NW 22:28:26 43° NNE 22:34:21 10° E daylight
08 Jun - 00:09:10 10° NW 00:15:16 76° SW 00:21:32 10° SSE daylight
08 Jun - 01:56:22 10° WNW 02:00:48 21° WSW 02:05:19 10° SSW daylight
08 Jun - 15:24:24 10° S 15:29:23 30° ESE 15:34:28 10° NE visible
08 Jun - 17:09:21 10° SW 17:15:15 80° NW 17:21:19 10° NE visible
08 Jun - 18:56:59 10° W 19:02:25 36° NNW 19:08:00 10° NE daylight
08 Jun - 20:45:02 10° NW 20:50:20 31° N 20:55:45 10° ENE daylight
08 Jun - 22:32:03 10° NW 22:37:58 51° NNE 22:44:03 10° ESE daylight
09 Jun - 00:18:32 10° NW 00:24:33 59° SW 00:30:41 10° SSE daylight
09 Jun - 02:06:26 10° WNW 02:09:47 15° WSW 02:13:11 10° SW daylight
09 Jun - 15:33:06 10° S 15:38:29 40° ESE 15:44:01 10° NE visible
09 Jun - 17:18:49 10° WSW 17:24:39 64° NW 17:30:41 10° NE visible
09 Jun - 19:06:43 10° WNW 19:12:04 33° NNW 19:17:32 10° NE daylight
09 Jun - 20:54:37 10° NW 21:00:00 32° NNE 21:05:32 10° ENE daylight
09 Jun - 22:41:24 10° NW 22:47:27 62° NE 22:53:39 10° ESE daylight
10 Jun - 00:27:59 10° NW 00:33:46 45° WSW 00:39:40 10° S daylight
10 Jun - 02:17:42 10° W 02:18:41 10° W 02:19:42 10° WSW daylight
10 Jun - 14:00:16 10° SE 14:02:38 13° E 14:05:01 10° ENE visible
10 Jun - 15:42:00 10° SSW 15:47:40 53° ESE 15:53:29 10° NE visible
10 Jun - 17:28:22 10° WSW 17:34:07 53° NW 17:40:04 10° NE visible
10 Jun - 19:16:28 10° WNW 19:21:44 31° N 19:27:07 10° NE daylight
10 Jun - 21:04:07 10° NW 21:09:39 35° NNE 21:15:19 10° E daylight
10 Jun - 22:50:46 10° NW 22:56:53 76° NE 23:03:10 10° SE daylight
11 Jun - 00:37:28 10° NW 00:42:55 34° WSW 00:48:27 10° S daylight
11 Jun - 14:07:46 10° SSE 14:11:33 18° ESE 14:15:24 10° ENE visible
11 Jun - 15:51:05 10° SSW 15:56:54 70° SE 16:02:54 10° NE visible
11 Jun - 17:38:01 10° W 17:43:39 44° NNW 17:49:29 10° NE visible
11 Jun - 19:26:10 10° WNW 19:31:25 30° N 19:36:47 10° ENE daylight
11 Jun - 21:13:34 10° NW 21:19:16 40° NNE 21:25:06 10° E daylight
11 Jun - 23:00:07 10° NW 23:06:16 87° SW 23:12:33 10° SE daylight
12 Jun - 00:47:05 10° WNW 00:52:00 26° WSW 00:57:00 10° SSW daylight
12 Jun - 14:15:56 10° SSE 14:20:33 25° ESE 14:25:15 10° ENE visible
12 Jun - 16:00:19 10° SW 16:06:13 89° SE 16:12:17 10° NE visible
12 Jun - 17:47:42 10° W 17:53:14 39° NNW 17:58:55 10° NE visible
12 Jun - 19:35:50 10° WNW 19:41:06 30° N 19:46:30 10° ENE daylight
12 Jun - 21:23:00 10° NW 21:28:50 46° NNE 21:34:50 10° ESE daylight
12 Jun - 23:09:29 10° NW 23:15:35 69° SW 23:21:50 10° SSE daylight
13 Jun - 00:56:54 10° WNW 01:01:01 19° WSW 01:05:11 10° SSW daylight
13 Jun - 14:24:27 10° S 14:29:37 33° ESE 14:34:53 10° NE visible
13 Jun - 16:09:42 10° SW 16:15:35 74° NW 16:21:40 10° NE visible
13 Jun - 17:57:27 10° W 18:02:51 35° NNW 18:08:25 10° NE visible
13 Jun - 19:45:27 10° NW 19:50:47 31° N 19:56:15 10° ENE daylight
13 Jun - 21:32:22 10° NW 21:38:21 54° NE 21:44:30 10° ESE daylight
13 Jun - 23:18:53 10° NW 23:24:50 53° WSW 23:30:55 10° SSE daylight
14 Jun - 01:07:09 10° WNW 01:09:58 13° WSW 01:12:49 10° SW daylight
14 Jun - 14:33:14 10° S 14:38:44 44° ESE 14:44:24 10° NE visible
14 Jun - 16:19:12 10° WSW 16:25:01 60° NW 16:31:02 10° NE visible
14 Jun - 18:07:11 10° WNW 18:12:30 32° NNW 18:17:57 10° NE visible
14 Jun - 19:54:59 10° NW 20:00:27 33° NNE 20:06:02 10° E daylight
14 Jun - 21:41:44 10° NW 21:47:50 66° NE 21:54:05 10° ESE daylight
14 Jun - 23:28:20 10° NW 23:34:02 41° WSW 23:39:51 10° S daylight
15 Jun - 12:59:47 10° SE 13:02:47 14° ESE 13:05:50 10° ENE daylight
15 Jun - 14:42:12 10° SSW 14:47:57 59° SE 14:53:52 10° NE visible
15 Jun - 16:28:46 10° WSW 16:34:31 49° NNW 16:40:26 10° NE visible
15 Jun - 18:16:55 10° WNW 18:22:10 31° N 18:27:35 10° NE visible
15 Jun - 20:04:28 10° NW 20:10:04 37° NNE 20:15:49 10° E daylight
15 Jun - 21:51:04 10° NW 21:57:15 81° NE 22:03:33 10° SE daylight
15 Jun - 23:37:52 10° NW 23:43:10 31° WSW 23:48:32 10° S daylight
